Location: Leipzig
(51.3397°N, 12.3731°E)
Time: 05:01:56
(UTC+01:00)

ARIANE 6 FM1 Upper Stage - Visible Passes

Search period start: 08 December 2025 00:00
Search period end: 18 December 2025 00:00
Orbit: 522 x 612 km, 62.0° (Epoch: 07 December)

Date Brightness Start Highest point End Pass type
(mag) Time Alt. Az. Time Alt. Az. Time Alt. Az.
08 Dec 6.1 17:31:29 10° W 17:33:24 13° WSW 17:35:20 10° SW visible
13 Dec 6.3 05:59:55 10° SE 06:00:42 10° ESE 06:01:29 10° ESE visible
14 Dec 5.8 05:58:34 10° SSE 06:00:55 15° ESE 06:03:14 10° E visible
15 Dec 5.3 05:58:05 10° S 06:01:09 21° ESE 06:04:11 10° ENE visible
16 Dec 4.6 05:57:54 10° S 06:01:25 29° SE 06:04:52 10° ENE visible
17 Dec 3.9 05:57:54 10° SSW 06:01:42 40° SE 06:05:26 10° ENE visible
